[[{"header":{"parameterUnit":"m.s-1","parameterCategory":1,"la1":30.2991,"la2":30.254,"lo1":-89.0895,"lo2":-89.0444,"dy":0.0017,"dx":0.0017,"nx":28,"ny":28,"refTime":"2023-10-19T21:00:00:Z","depth":0,"parameterNumber":2,"parameterNumberName":"U-component_of_WINDS"},"data":[0,0,0,0,0,0,0,0,0,0,0,0,0,0,0,0,0,0,0,0,0,0,0,0,0,0,0,0,0,0,0,0,0,0,0,0,0,0,0,0,0,0,0,0,0,0,0,0,0,0,0,0,0,0,0,0,0,0,3.0151,3.0152,0,3.0271,3.0272,3.0273,3.0258,3.0256,3.0254,3.0252,3.0375,3.038,3.0385,0,0,0,0,0,0,0,0,0,0,0,0,0,2.9911,2.9916,3.0151,3.0152,3.0154,3.027,3.0272,3.0274,3.0258,3.0256,3.0253,3.0251,3.0373,3.0379,3.0385,0,0,0,0,0,0,0,0,0,0,0,0,0,3.0022,2.9917,3.015,3.016,3.0162,3.027,3.0272,3.0274,3.0259,3.0256,3.0253,3.025,3.0371,3.0379,3.0386,3.0492,0,0,3.041,3.0413,0,0,0,0,0,0,0,0,3.0015,3.003,3.0157,3.016,3.0162,3.0246,3.0233,3.0347,3.0259,3.0222,3.0252,3.0249,3.0335,3.0345,3.0374,3.0498,3.0503,3.041,3.0415,3.0418,3.042,0,0,0,0,0,0,0,3.0008,3.0025,3.0198,3.0159,3.0162,3.0159,3.0172,3.0254,3.0293,3.0225,3.0224,3.0239,3.0335,3.0367,3.0377,3.0505,3.041,3.0417,3.0422,3.0425,3.0726,3.073,0,0,0,0,0,0,2.9997,3.0019,3.0194,3.0202,3.008,3.0166,3.018,3.0222,3.0292,3.03,3.0241,3.0238,3.0355,3.0368,3.0381,3.0512,3.0418,3.0425,3.043,3.0723,3.0727,3.0731,0,0,0,0,0,0,2.9992,3.0013,3.019,3.011,3.0132,3.0173,3.0221,3.0226,3.0257,3.0304,3.0311,3.0266,3.0353,3.037,3.0466,3.0516,3.0429,3.0436,3.0719,3.0724,3.0729,3.0773,0,0,0,0,0,0,2.9986,3.0011,3.0051,3.0111,3.0137,3.0271,3.0224,3.0231,3.0271,3.0267,3.0329,3.0337,3.0352,3.0454,3.0473,3.0525,3.0442,3.0714,3.0721,3.0727,3.0768,3.0779,3.079,0,0,0,0,0,2.9977,3.0058,3.0053,3.0074,3.0187,3.0274,3.0289,3.0305,3.0275,3.0316,3.0347,3.0335,3.0508,3.0464,3.0485,3.054,3.0711,3.0719,3.0727,3.0763,3.0777,3.0789,0,0,0,0,0,0,3.0002,3.0066,3.0061,3.0164,3.0214,3.0271,3.0323,3.0319,3.0378,3.0372,3.039,3.0404,3.0501,3.053,3.0481,3.0648,3.0606,3.0618,3.0626,3.064,3.065,3.0641,3.0448,0,0,0,0,0,3.002,3.0084,3.0137,3.0223,3.0248,3.0282,3.032,3.0328,3.0381,3.0401,3.0439,3.0491,3.0557,3.06,3.0663,3.0772,3.0787,3.0821,3.0832,3.084,3.0851,3.0914,3.093,3.0756,3.0756,3.0756,0,0,3.0056,3.0099,3.0139,3.0229,3.0268,3.0336,3.0299,3.0372,3.0423,3.0412,3.0505,3.0535,3.0594,3.0698,3.0745,3.0725,3.0903,3.085,3.0857,3.0863,3.0924,3.094,3.0955,3.0761,3.076,3.076,0,0,3.0158,3.0196,3.0273,3.0314,3.0375,3.0398,3.0417,3.0476,3.0496,3.0589,3.0584,3.0646,3.0758,3.0802,3.0838,3.0961,3.0954,3.0981,3.1038,3.11,3.1114,3.1126,3.1172,3.1188,3.0992,3.0992,3.0992,0,3.0195,3.0297,3.0313,3.0388,3.0429,3.0424,3.0503,3.0543,3.0621,3.065,3.0626,3.0771,3.081,3.0925,3.0955,3.0985,3.1008,3.0974,3.111,3.1123,3.1134,3.1178,3.1195,3.0995,3.0995,3.0994,3.0994,0,3.0341,3.0412,3.0467,3.0545,3.0592,3.0668,3.0698,3.0744,3.0749,3.0775,3.0872,3.092,3.0994,3.1022,3.1027,3.1139,3.1125,3.1106,3.1063,3.1154,3.1195,3.1212,3.0999,3.0998,3.0997,3.0997,0,0,3.0459,3.0548,3.0568,3.0604,3.0673,3.0729,3.0806,3.088,3.092,3.0975,3.1042,3.114,3.1124,3.1166,3.1176,3.123,3.1327,3.1204,3.1206,3.1227,3.1457,3.1471,3.149,3.1323,3.1326,3.1329,3.1452,0,3.0569,3.0705,3.0725,3.0846,3.0913,3.0912,3.098,3.1031,3.1058,3.112,3.1149,3.1219,3.1191,3.1217,3.127,3.1304,3.1374,3.1295,3.1387,3.139,3.1372,3.1511,3.1526,3.164,3.1468,3.1471,3.1473,0,3.0713,3.0775,3.0903,3.0966,3.0995,3.1056,3.1127,3.1185,3.1244,3.126,3.1309,3.1314,3.1397,3.1351,3.1467,3.1413,3.1452,3.1475,3.148,3.1489,3.1437,3.1525,3.1677,3.1694,3.1498,3.1496,3.1495,0,3.0789,3.0903,3.0996,3.1027,3.1102,3.1145,3.1179,3.1235,3.1279,3.1341,3.137,3.1441,3.148,3.1536,3.1561,3.1525,3.1676,3.1632,3.1693,3.1693,3.1724,3.1722,3.1885,3.1748,3.1748,3.1748,3.1747,0,3.0909,3.0988,3.1031,3.1088,3.1178,3.12,3.1288,3.1321,3.1371,3.1436,3.1439,3.1499,3.1528,3.1594,3.1614,3.1708,3.1726,3.1742,3.1747,3.1742,3.174,3.1768,3.1761,3.1752,3.1751,3.175,3.175,0,3.1007,3.1039,3.114,3.1204,3.1223,3.1286,3.1342,3.1398,3.1426,3.1508,3.1528,3.1572,3.165,3.1681,3.1776,3.179,3.1899,3.1896,3.1879,3.188,3.194,3.1935,3.2127,3.2154,3.1999,3.2001,3.2002,0,3.1082,3.1143,3.1215,3.1259,3.1294,3.1364,3.141,3.1435,3.1483,3.1557,3.1605,3.1683,3.1747,3.1872,3.1913,3.1987,3.1987,3.205,3.1998,3.1993,3.199,3.1986,3.1993,3.2059,3.206,3.2062,3.2063,0,3.1212,3.1225,3.1291,3.1364,3.1419,3.1477,3.1534,3.157,3.1604,3.1658,3.1739,3.1788,3.1887,3.1965,3.2042,3.2078,3.2077,3.2079,3.2097,3.2093,3.2081,3.209,3.1906,3.2074,3.2073,3.2072,3.2071,3.2071,3.1301,3.1357,3.1417,3.1491,3.1537,3.1591,3.1648,3.1685,3.1752,3.1834,3.1846,3.1932,3.1993,3.2096,3.2136,3.2205,3.2189,3.2215,3.2222,3.2228,3.2233,3.207,3.2219,3.2219,3.2219,3.2218,3.2218,0,3.1433,3.1472,3.154,3.1621,3.168,3.1675,3.1739,3.1789,3.1865,3.1922,3.1985,3.208,3.2157,3.2205,3.2283,3.233,3.2332,3.235,3.2346,3.2355,3.2242,3.2219,3.2347,3.2347,3.2347,3.2347,3.2347,3.2347,3.1508,3.1602,3.1624,3.1743,3.1782,3.1867,3.1904,3.1955,3.2001,3.2106,3.217,3.2202,3.2256,3.2339,3.241,3.2423,3.2452,3.2472,3.2483,3.2376,3.2363,3.235,3.2329,3.2477,3.2478,3.2591,3.2592,3.2592]},{"header":{"parameterUnit":"m.s-1","parameterCategory":1,"la1":30.2991,"la2":30.254,"lo1":-89.0895,"lo2":-89.0444,"dy":0.0017,"dx":0.0017,"nx":28,"ny":28,"refTime":"2023-10-19T21:00:00:Z","depth":0,"parameterNumber":3,"parameterNumberName":"V-component_of_WINDS"},"data":[0,0,0,0,0,0,0,0,0,0,0,0,0,0,0,0,0,0,0,0,0,0,0,0,0,0,0,0,0,0,0,0,0,0,0,0,0,0,0,0,0,0,0,0,0,0,0,0,0,0,0,0,0,0,0,0,0,0,0.8844,0.8844,0,0.888,0.888,0.8881,0.8891,0.889,0.889,0.889,0.8927,0.8928,0.893,0,0,0,0,0,0,0,0,0,0,0,0,0,0.8784,0.8786,0.8844,0.8844,0.8845,0.888,0.888,0.8881,0.8891,0.889,0.889,0.889,0.8927,0.8928,0.893,0,0,0,0,0,0,0,0,0,0,0,0,0,0.8814,0.8786,0.8844,0.8854,0.8855,0.888,0.888,0.8881,0.8891,0.889,0.889,0.889,0.8926,0.8928,0.893,0.8947,0,0,0.8935,0.8936,0,0,0,0,0,0,0,0,0.8813,0.8816,0.8852,0.8853,0.8855,0.888,0.8873,0.8903,0.8891,0.8877,0.889,0.889,0.8912,0.8915,0.8922,0.8949,0.895,0.8936,0.8937,0.8937,0.8938,0,0,0,0,0,0,0,0.8811,0.8815,0.8858,0.8852,0.8854,0.8857,0.8861,0.8879,0.8896,0.8878,0.8879,0.8883,0.8913,0.8921,0.8923,0.8951,0.8935,0.8937,0.8938,0.8939,0.8993,0.8994,0,0,0,0,0,0,0.8807,0.8813,0.8857,0.8859,0.8832,0.8858,0.8863,0.8872,0.8896,0.8899,0.8883,0.8884,0.8918,0.8921,0.8925,0.8946,0.8937,0.8939,0.894,0.8993,0.8993,0.8994,0,0,0,0,0,0,0.8805,0.881,0.8855,0.8836,0.8842,0.886,0.8871,0.8873,0.8881,0.89,0.8903,0.8888,0.8918,0.8922,0.8941,0.8948,0.894,0.8941,0.8993,0.8993,0.8994,0.899,0,0,0,0,0,0,0.8804,0.881,0.8816,0.8836,0.8843,0.8871,0.8871,0.8874,0.8884,0.8885,0.8905,0.8908,0.8918,0.8939,0.8943,0.895,0.8943,0.8992,0.8993,0.8993,0.8989,0.899,0.8991,0,0,0,0,0,0.8801,0.8814,0.8817,0.8822,0.8852,0.8872,0.8876,0.8886,0.8885,0.8891,0.8903,0.8907,0.8946,0.8941,0.8946,0.8953,0.8992,0.8993,0.8993,0.8989,0.899,0.8991,0,0,0,0,0,0,0.8794,0.8817,0.882,0.8839,0.8853,0.8873,0.8882,0.8887,0.8902,0.8902,0.8915,0.8919,0.8938,0.8947,0.894,0.8971,0.8969,0.8971,0.8964,0.8965,0.8966,0.8963,0.8944,0,0,0,0,0,0.8795,0.8809,0.8828,0.8843,0.885,0.8865,0.8874,0.8881,0.8896,0.8902,0.8916,0.893,0.8946,0.8956,0.8971,0.8991,0.8996,0.8999,0.8999,0.9,0.9001,0.9013,0.9014,0.8997,0.8997,0.8997,0,0,0.8796,0.881,0.8818,0.8842,0.8854,0.8868,0.887,0.8885,0.8896,0.8905,0.8924,0.8934,0.8951,0.8971,0.898,0.898,0.9007,0.9001,0.9001,0.9002,0.9014,0.9015,0.9017,0.8997,0.8997,0.8997,0,0,0.8806,0.8818,0.8832,0.8844,0.8862,0.8872,0.8875,0.8895,0.8902,0.8921,0.8928,0.8941,0.8968,0.898,0.899,0.9005,0.9009,0.9009,0.9013,0.9024,0.9025,0.9027,0.9032,0.9034,0.9011,0.9011,0.9011,0,0.8806,0.8828,0.8839,0.8854,0.8864,0.8873,0.8887,0.8898,0.892,0.8927,0.8926,0.896,0.8972,0.8995,0.8999,0.9006,0.9011,0.9007,0.9024,0.9026,0.9027,0.9032,0.9035,0.9011,0.9011,0.9011,0.9011,0,0.8827,0.8842,0.8851,0.8872,0.8884,0.8898,0.8912,0.8922,0.8928,0.8938,0.8958,0.8973,0.8992,0.8998,0.9004,0.9021,0.902,0.9022,0.902,0.9028,0.9034,0.9036,0.9011,0.9011,0.9011,0.9011,0,0,0.8833,0.886,0.8863,0.8873,0.8894,0.8906,0.8921,0.894,0.8948,0.8963,0.8976,0.8999,0.9,0.9011,0.9019,0.9028,0.904,0.9029,0.9029,0.903,0.906,0.9059,0.9061,0.9043,0.9043,0.9043,0.9059,0,0.8846,0.8873,0.8884,0.8906,0.8921,0.8929,0.8943,0.8957,0.8967,0.8981,0.8991,0.9007,0.9008,0.9014,0.9024,0.9036,0.9046,0.9035,0.9055,0.9056,0.9051,0.9064,0.9063,0.9077,0.9061,0.9061,0.9062,0,0.8864,0.888,0.8904,0.8923,0.8929,0.8941,0.8959,0.8972,0.8988,0.8995,0.9007,0.9014,0.9031,0.9028,0.9051,0.9044,0.9053,0.906,0.9061,0.9063,0.9059,0.9067,0.9082,0.9084,0.9065,0.9065,0.9064,0,0.8867,0.8893,0.8911,0.892,0.8942,0.895,0.896,0.8976,0.8987,0.9002,0.9009,0.9027,0.9036,0.9049,0.9061,0.9058,0.9083,0.9081,0.9089,0.9089,0.9094,0.9094,0.911,0.91,0.91,0.91,0.91,0,0.888,0.8895,0.8913,0.8924,0.894,0.8953,0.8969,0.8979,0.8993,0.9007,0.9015,0.9027,0.9042,0.9056,0.9065,0.9083,0.9087,0.9093,0.9096,0.9093,0.9092,0.9099,0.9098,0.91,0.91,0.91,0.91,0,0.8886,0.8899,0.8919,0.8939,0.8944,0.8955,0.8973,0.8984,0.8994,0.9011,0.9016,0.9032,0.9049,0.9062,0.9084,0.909,0.911,0.9112,0.9104,0.9105,0.9113,0.9112,0.9134,0.9138,0.9125,0.9125,0.9125,0,0.8893,0.8905,0.8926,0.8936,0.8946,0.8961,0.8972,0.8984,0.8995,0.9015,0.9024,0.9041,0.9056,0.9084,0.9097,0.9115,0.9118,0.9124,0.912,0.9117,0.9118,0.9117,0.9118,0.9125,0.9125,0.9125,0.9125,0,0.8906,0.8912,0.8927,0.8944,0.8957,0.8971,0.8986,0.8993,0.9008,0.902,0.9038,0.905,0.9073,0.909,0.9109,0.9119,0.9125,0.9126,0.9129,0.9126,0.9121,0.9124,0.9106,0.9126,0.9126,0.9126,0.9125,0.9125,0.8913,0.8924,0.894,0.8957,0.8969,0.8983,0.8994,0.9006,0.9021,0.9041,0.9048,0.9066,0.9082,0.9108,0.9119,0.9133,0.9133,0.9137,0.9138,0.9139,0.9139,0.9119,0.9137,0.9137,0.9137,0.9137,0.9137,0,0.8926,0.8937,0.8953,0.8973,0.8986,0.899,0.9006,0.9017,0.9033,0.9048,0.9063,0.9084,0.9101,0.9116,0.9134,0.9143,0.9146,0.9147,0.9147,0.9149,0.9138,0.9134,0.9145,0.9145,0.9145,0.9145,0.9145,0.9145,0.8934,0.8953,0.8961,0.8985,0.8997,0.9015,0.9024,0.9036,0.9048,0.9071,0.9085,0.9095,0.911,0.913,0.9146,0.915,0.9156,0.9157,0.9162,0.9151,0.915,0.9149,0.9145,0.9158,0.9158,0.9172,0.9172,0.9172]}]]